Regional Weather Roundup
Issued by NWS Albany, NY

Home | Current Version | Previous Version | Text Only | Print | Product List | Glossary On
Versions: 1 2 3 4 5 6 7 8 9 10 11 12 13 14 15 16 17 18 19 20 21 22 23 24 25 26 27 28 29 30 31 32 33 34 35 36 37 38 39 40 41 42 43 44 45 46 47 48 49 50
136
ASUS41 KALY 021310
RWRALY

NEW YORK STATE HOURLY WEATHER ROUNDUP
NATIONAL WEATHER SERVICE ALBANY NY
900 AM EDT MON MAY 02 2016

NOTE: "FAIR" INDICATES FEW OR NO CLOUDS BELOW 12,000 FEET WITH NO
SIGNIFICANT WEATHER AND/OR NO OBSTRUCTIONS TO VISIBILITY.

NYZ032-033-038>043-046>054-057>066-NYZ062>081-082-084-021400-
EAST


CITY           SKY/WX    TMP DP  RH WIND       PRES   REMARKS
ALBANY         CLOUDY    47  41  80 S3        29.98F
GLENS FALLS    CLOUDY    44  42  93 CALM      29.98F FOG
POUGHKEEPSIE   LGT RAIN  47  43  86 NE3       29.97F
NEWBURGH       DRIZZLE   45  45 100 E7        29.96F FOG
MONTGOMERY     LGT RAIN  45  43  93 CALM      29.97F
WHITE PLAINS   FOG       46  45  96 E5        29.97F VSB 1/4
ISLIP          CLOUDY    49  47  93 NE6       29.98F FOG
NEW YORK CITY  CLOUDY    49  45  86 NE5       30.00S FOG
CENTRAL PARK   CLOUDY    49  45  86 VRB3      30.02R FOG
$$

NYZ005>009-017-018-044>046-055-056-021400-
CENTRAL


CITY           SKY/WX    TMP DP  RH WIND       PRES   REMARKS
FULTON         LGT RAIN  48  46  93 N7        29.91F FOG
SYRACUSE       RAIN      47  47 100 N6        29.90F FOG
ROME           RAIN      45  45 100 E5        29.93F
ELMIRA         LGT RAIN  50  46  86 NE8       29.87S
BINGHAMTON     LGT RAIN  45  45 100 SE7       29.87F FOG
MONTICELLO     CLOUDY    43  41  93 SW5       29.98R THUNDER
$$

NYZ026>034-041>043-087-021400-
NORTH


CITY           SKY/WX    TMP DP  RH WIND       PRES   REMARKS
WATERTOWN      CLOUDY    46  44  93 N8        29.95R FOG
FORT DRUM      NOT AVBL
MASSENA        CLOUDY    47  44  90 NE9       29.97F
SARANAC LAKE   CLOUDY    43  40  89 E5        29.91F FOG
PLATTSBURGH    CLOUDY    45  42  89 SE7       29.97F
$$

NYZ001>004-010>016-019>021-085-021400-
WEST


CITY           SKY/WX    TMP DP  RH WIND       PRES   REMARKS
NIAGARA FALLS  LGT RAIN  44  41  89 NE12      29.93F
BUFFALO        LGT RAIN  44  42  93 E12       29.92F
DUNKIRK        CLOUDY    45  43  93 NE10      29.91F
JAMESTOWN      CLOUDY    45  43  93 NE12      29.85S
WELLSVILLE     LGT RAIN  46  45  96 N7        29.88R VSB 3/4
ROCHESTER      RAIN      44  43  96 NE7       29.95R FOG
PENN YAN       HVY RAIN  45  43  93 N5        29.92S FOG
$$

             KEY
       WCI = WIND CHILL INDEX
       VSB = VISIBILITY
       HX  = HEAT INDEX
$$




USA.gov is the U.S. government's official web portal to all federal, state and local government web resources and services.